Location: *
(46.7000°N, 6.7000°E)
Time: 19:44:31
(UTC+00:00)

Daily predictions for brighter satellites

Satellite Brightness Start Highest point End
(mag) Time Altitude Azimuth Time Altitude Azimuth Time Altitude Azimuth
Cosmos 1953 3.2 17:02:07 10° SSW 17:06:06 56° WNW 17:10:08 10° N
Ariane Rocket 4.4 17:03:07 10° E 17:06:24 18° ENE 17:09:42 10° NNE
YAOGAN 6 3.5 17:04:02 10° SE 17:07:09 27° ENE 17:10:15 10° N
Unknown 4.5 17:08:14 10° WNW 17:11:45 33° N 17:15:15 10° ENE
COSMO-SKYMED 1 3.1 17:10:12 10° NNE 17:14:14 36° E 17:18:15 10° SSE
Cosmos 1833 Rocket 2.7 17:11:46 10° NNW 17:17:21 62° ENE 17:22:55 10° SE
Cosmos 1953 Rocket 4.5 17:16:36 10° NNW 17:20:52 53° W 17:25:05 10° S
NOSS 3-2 (C) 4.4 17:16:44 10° SSE 17:21:17 24° ESE 17:26:13 10° ENE
ASTEX 1 3.4 17:18:30 10° NNE 17:23:27 62° E 17:28:23 10° S
BREEZE-M DEB (TANK) 4.3 17:11:18 10° SW 17:24:39 45° SSE 17:28:14 13° E
Cosmos 1777 Rocket 4.1 17:21:39 10° NNW 17:26:54 86° WSW 17:32:05 10° SSE
Okean-O 3.0 17:22:56 10° S 17:27:20 70° WSW 17:31:48 10° NNW
CZ-4 R/B 4.5 17:24:21 10° SSE 17:28:23 56° ENE 17:32:25 10° N
Lacrosse 5 1.8 17:26:20 10° NW 17:31:25 78° NE 17:36:30 10° SE
Unknown 3.1 17:29:51 10° WNW 17:33:16 87° SSW 17:36:20 12° ESE
Cosmos 1076 Rocket 4.2 17:30:51 10° N 17:34:50 33° ENE 17:38:46 10° SE
Cosmos 1605 Rocket 3.9 17:29:08 10° N 17:35:19 76° E 17:41:25 10° SSE
Cosmos 1328 4.4 17:32:17 10° NNW 17:36:13 61° W 17:40:06 10° S
Cosmos 1934 Rocket 4.4 17:29:55 10° NNW 17:36:16 73° W 17:42:36 10° S
Unknown 4.4 17:33:29 10° WNW 17:37:07 36° N 17:39:36 17° ENE
Cosmos 2058 3.9 17:33:35 10° NNE 17:37:09 26° ENE 17:40:41 10° SE
Cosmos 1300 3.6 17:34:03 10° SSE 17:37:18 27° E 17:40:34 10° NNE
Cosmos 1242 Rocket 4.2 17:36:18 10° NNW 17:39:46 38° W 17:43:11 10° SSW
FALCON 9 DEB 3.2 17:42:33 10° WNW 17:46:02 81° SSW 17:48:30 18° SE
ATLAS 3B R/B 3.5 17:40:47 10° SSE 17:46:16 27° ESE 17:50:13 16° ENE
CZ-2D R/B 3.8 17:43:23 10° SE 17:46:56 36° ENE 17:50:30 10° N
CSL-04 Debris 4.1 17:42:32 10° SSE 17:47:58 72° ENE 17:53:27 10° N
Cosmos 1727 Rocket 4.0 17:43:07 10° S 17:49:07 59° E 17:55:11 10° NNE
Cosmos 2082 Rocket 2.1 17:44:44 10° NNW 17:50:29 76° ENE 17:56:09 10° SSE
Cosmos 1812 Rocket 3.6 17:47:18 10° S 17:51:37 55° E 17:56:00 10° NNE
Cosmos 2173 Rocket 4.3 17:46:12 10° N 17:52:05 41° ENE 17:57:50 10° SE
Cosmos 1939 Rocket 3.3 17:48:42 10° SE 17:52:25 38° ENE 17:56:13 10° N
CENTAUR R/B 3.2 17:47:58 10° S 17:53:01 30° ESE 17:56:59 17° ENE
Cosmos 2151 4.3 17:50:13 10° NNE 17:53:14 21° ENE 17:53:14 21° ENE
BREEZE-M DEB (TANK) 2.5 17:54:27 10° SW 17:58:57 57° SSE 17:59:43 38° E
Falcon 9 debris 3.6 17:56:08 10° WNW 17:59:32 58° SW 18:01:35 21° SE
Envisat 3.8 17:57:14 10° S 18:02:12 54° W 18:07:11 10° NNW
SKYMED 2 3.8 17:58:03 10° N 18:02:24 72° WNW 18:06:43 10° SSW
YAOGAN 1 2.5 17:58:05 10° SSE 18:02:24 87° WSW 18:06:46 10° NNW
Unknown 3.3 17:59:51 10° WNW 18:03:22 71° SSW 18:05:02 28° SE
Cosmos 1802 Rocket 4.4 17:57:29 10° N 18:03:35 42° ENE 18:09:35 10° SE
Cosmos 44 3.5 18:01:23 10° SSW 18:06:06 46° ESE 18:08:22 26° ENE
Cosmos 1898 Rocket 3.7 18:06:34 10° NNW 18:11:44 51° ENE 18:14:40 25° SE
H-2A R/B 3.3 18:11:50 23° ENE 18:11:50 23° ENE 18:15:59 10° N
Unknown 3.4 18:08:21 10° WNW 18:12:04 62° NNE 18:12:58 45° E
In-Cosmos 22 Rocket 4.2 18:08:01 10° N 18:13:21 54° ENE 18:18:47 10° SSE
BREEZE M DEB (TANK) 3.2 18:11:37 10° W 18:14:08 43° SSW 18:17:54 17° SE
ATLAS 5 CENTAUR R/B 4.2 18:13:27 10° NW 18:16:14 15° NNW 18:19:13 10° NNE
Meteor 2-1 Rocket 4.2 18:11:54 10° S 18:17:15 54° E 18:22:41 10° NNE
Cosmos 2100 Rocket 3.9 18:15:07 10° N 18:21:19 71° E 18:27:26 10° SSE
USA 238 DEB 3.7 18:15:46 10° SW 18:22:29 81° NW 18:29:24 10° NE
USA 238 3.7 18:15:52 10° SW 18:22:36 81° NW 18:29:28 10° NE
USA 116 3.8 18:19:49 10° N 18:23:02 60° WNW 18:26:32 10° SSW
Unknown 4.1 18:21:19 10° WNW 18:24:40 43° SW 18:25:41 33° S
CZ-4 R/B 3.0 18:21:32 10° SSW 18:25:27 38° W 18:29:25 10° NNW
Unknown 4.4 18:21:53 10° WNW 18:25:46 37° N 18:26:27 35° NE
Abrixas rocket 2.4 18:24:13 10° W 18:27:03 58° NNW 18:27:03 58° NNW
Cosmos-2242 4.5 18:23:15 10° SSE 18:31:38 10° NNE 18:25:01 23° SSE
Unknown 4.4 18:23:34 10° WNW 18:27:28 38° NNE 18:28:04 35° NNE
Unknown 4.4 18:25:13 10° WNW 18:29:07 38° NNE 18:29:39 36° NNE
Unknown 4.4 18:26:51 10° WNW 18:30:46 38° NNE 18:31:13 37° NNE
DMSP B5D1-3 4.4 18:26:08 10° NNE 18:31:18 88° ESE 18:36:27 10° SSW
Cosmos 2278 Rocket 3.4 18:25:59 10° SW 18:31:21 42° NW 18:36:46 10° NNE
Unknown 4.4 18:28:31 10° WNW 18:32:25 39° NNE 18:32:48 38° NNE
ATLAS CENTAUR R/B 3.5 18:30:38 10° N 18:33:06 16° NNE 18:33:06 16° NNE
Unknown 4.3 18:31:51 10° WNW 18:35:47 39° NNE 18:36:01 39° NNE
Cosmos 2297 3.6 18:30:31 10° SSW 18:36:12 78° ESE 18:41:31 12° NNE
Cosmos 2016 Rocket 4.0 18:31:01 10° N 18:37:16 61° ENE 18:41:16 23° SSE
Starlink (trailer) 4.3 18:33:30 10° WNW 18:37:25 40° NNE 18:37:35 39° NNE
Unknown 4.3 18:35:13 10° WNW 18:39:09 40° NNE 18:39:13 40° NNE
Unknown 4.3 18:36:52 10° WNW 18:40:49 41° NNE 18:40:49 41° NNE
SJ 16-02 1.4 18:37:07 10° NNW 18:41:02 57° NE 18:41:02 57° NE
Cosmos 2084 Rocket 4.5 18:38:29 10° NW 18:42:42 44° WSW 18:44:44 26° S
Ariane Rocket 3.1 18:39:40 10° S 18:44:46 76° WSW 18:49:54 10° NNW
NOSS 3-2 (A) 3.7 18:39:11 10° SW 18:44:59 69° NW 18:50:14 17° NE
ARGOS 3.9 18:46:31 36° NE 18:46:31 36° NE 18:50:35 10° N
Unknown 4.4 18:41:53 10° WNW 18:45:38 42° N 18:45:38 42° N
SL-08 R/B 4.4 18:40:03 10° N 18:46:05 60° ENE 18:47:42 45° SE
Unknown 4.4 18:43:31 10° WNW 18:47:11 42° N 18:47:11 42° N
Unknown 4.4 18:45:12 10° WNW 18:48:48 42° N 18:48:48 42° N
Cosmos 468 Rocket 3.8 18:44:09 10° SSW 18:49:25 81° ESE 18:52:10 29° NNE
Unknown 3.9 18:46:41 10° WNW 18:49:50 57° NW 18:49:50 57° NW
Unknown 4.4 18:46:48 10° WNW 18:50:24 42° N 18:50:24 42° N
Unknown 4.4 18:48:31 10° WNW 18:51:59 42° N 18:51:59 42° N
Cosmos 1892 4.2 18:50:22 10° N 18:52:13 27° N 18:52:13 27° N
Unknown 4.5 18:50:17 10° WNW 18:53:41 42° N 18:53:41 42° N
Cosmos 990 Rocket 4.2 18:55:22 10° NNW 19:00:34 70° WSW 19:02:11 44° S
Cosmos 1937 Rocket 3.3 18:56:39 10° NNW 19:01:50 87° WSW 19:02:15 76° S
ADEOS Rocket 3.4 18:54:39 10° NNE 19:02:07 54° E 19:08:57 10° S
Cosmos 858 Rocket 4.4 18:58:19 10° NNW 19:03:33 81° WSW 19:04:10 68° S
Cosmos 1766 Rocket 4.3 19:03:10 10° NNW 19:06:20 47° NNW 19:06:20 47° NNW
Cosmos 1570 Rocket 4.2 19:02:40 10° SSW 19:07:01 60° S 19:07:01 60° S
CZ-2C R/B 4.3 19:13:11 34° NNE 19:13:11 34° NNE 19:16:43 10° N
NOSS 3-2 (C) 3.6 19:05:37 10° SW 19:11:27 69° NW 19:14:29 33° NNE
Lacrosse 5 3.9 19:10:01 10° WNW 19:13:56 23° SW 19:16:09 17° SSW
Cosmos 2061 Rocket 4.2 19:09:38 10° NNW 19:15:50 69° W 19:19:54 22° S
Resurs 01 Rocket 4.3 19:29:46 11° N 19:29:46 11° N 19:30:00 10° N
Cosmos 1763 Rocket 3.8 19:20:29 10° SSW 19:25:17 63° W 19:25:17 63° W
SPOT 3 Rocket 4.3 19:36:38 49° NW 19:36:38 49° NW 19:40:31 10° NNW
ATLAS 3B R/B 2.7 19:29:43 10° SW 19:36:26 70° NW 19:37:31 60° N
CENTAUR R/B 2.9 19:37:06 10° SW 19:43:08 62° NW 19:44:14 55° N
H-2A R/B 3.2 19:52:28 41° NW 19:52:28 41° NW 19:56:09 10° NNW
ATLAS CENTAUR R/B 4.5 20:08:53 10° NW 20:09:18 12° NNW 20:09:18 12° NNW
SJ 16-02 4.4 20:17:07 10° WNW 20:18:03 13° WNW 20:18:03 13° WNW
